Regional Weather Roundup
Issued by NWS

Home | Current Version | Previous Version | Graphics & Text | Print | Product List | Glossary On
Versions: 1 2 3 4 5 6 7 8 9 10 11 12 13 14 15 16 17 18 19 20 21 22 23 24 25 26 27 28 29 30 31 32 33 34 35 36 37 38 39 40 41 42 43 44 45 46 47 48 49 50
000
ASUS43 KLMK 280710
RWRKY
KENTUCKY REGIONAL WEATHER ROUNDUP
NATIONAL WEATHER SERVICE LOUISVILLE KY
200 AM EST TUE FEB 28 2017

NOTE "FAIR" INDICATES FEW OR NO CLOUDS BELOW 12,000 FEET
WITH NO SIGNIFICANT WEATHER AND/OR OBSTRUCTIONS TO VISIBILITY.

KYZ001>023-026-027-061>063-070>075-280800-
WESTERN AND SOUTH CENTRAL KENTUCKY

CITY           SKY/WX    TMP DP  RH WIND       PRES   REMARKS
PADUCAH        CLOUDY    55  48  77 S5        30.03F
HENDERSON      CLOUDY    54  45  71 S12       30.04F
OWENSBORO      LGT RAIN  52  47  83 S12       30.09F
HOPKINSVILLE   MOCLDY    53  47  83 SE9       30.09F
BOWLING GREEN  MOCLDY    52  46  80 SE9       30.13F
GLASGOW        CLOUDY    50  44  78 S9G17     30.14F
$$

KYZ024-025-028>034-038-045-046-053-280800-
NORTH CENTRAL KENTUCKY

CITY           SKY/WX    TMP DP  RH WIND       PRES   REMARKS
LOUISVILLE/SDF CLOUDY    48  41  76 SE7       30.12F
LOUISVILLE/LOU PTCLDY    50  41  71 SE6       30.13F
FORT KNOX        N/A    N/A N/A N/A MISG        N/A
$$

KYZ035>037-039>044-047>052-055>060-089>105-280800-
NORTHEAST KENTUCKY

CITY           SKY/WX    TMP DP  RH WIND       PRES   REMARKS
LEXINGTON      CLOUDY    45  39  79 SE8       30.16F
COVINGTON      CLOUDY    44  39  82 S9        30.14F
FRANKFORT      CLOUDY    45  37  73 SE6       30.15F
$$

KYZ054-064>069-076>088-106>120-280800-
SOUTHEAST KENTUCKY

CITY           SKY/WX    TMP DP  RH WIND       PRES   REMARKS
JACKSON        CLEAR     47  33  58 S3        30.22S
LONDON         CLEAR     39  33  79 CALM      30.22S
SOMERSET       CLOUDY    39  37  93 CALM      30.22F
MIDDLESBORO    CLEAR     36  34  92 CALM      30.26F
MONTICELLO     NOT AVBL
$$




USA.gov is the U.S. government's official web portal to all federal, state and local government web resources and services.